Location: Azul
(36.7830°S, 59.8500°W)
Time: 18:07:42
(UTC-03:00)

AO-109 - Pass Details

Date: 30 October 2021
Orbit: 474 x 522 km, 60.7° (Epoch: 06 December)

Event Time Altitude Azimuth Distance (km) Brightness Sun altitude
Rises 20:52:43 0° 346° (NNW) 2,580 ? -15.7°
Reaches altitude 10° 20:54:59 10° 355° (N) 1,714 ? -16.1°
Enters shadow 20:55:06 11° 355° (N) 1,669 ? -16.1°
Exits shadow 21:00:41 19° 114° (ESE) 1,267 ? -17.0°
Drops below altitude 10° 21:02:07 10° 126° (SE) 1,762 ? -17.3°
Sets 21:04:27 0° 135° (SE) 2,665 ? -17.7°
